Tillbaka till svenska Fidonet
English   Information   Debug  
FILM   0/18
FNEWS_PUBLISH   4983
FN_SYSOP   42232
FN_SYSOP_OLD1   71952
FTP_FIDO   0/2
FTSC_PUBLIC   0/13976
FUNNY   0/4886
GENEALOGY.EUR   0/71
GET_INFO   105
GOLDED   0/408
HAM   5471/16727
HOLYSMOKE   0/6791
HOT_SITES   0/1
HTMLEDIT   0/71
HUB203   466
HUB_100   264
HUB_400   39
HUMOR   0/29
IC   0/2851
INTERNET   0/424
INTERUSER   0/3
IP_CONNECT   719
JAMNNTPD   0/233
JAMTLAND   0/47
KATTY_KORNER   0/41
LAN   0/16
LINUX-USER   0/19
LINUXHELP   0/1155
LINUX   0/22394
LINUX_BBS   0/957
mail   18.68
mail_fore_ok   249
MENSA   0/341
MODERATOR   0/102
MONTE   0/992
MOSCOW_OKLAHOMA   0/1245
MUFFIN   0/783
MUSIC   0/321
N203_STAT   938
N203_SYSCHAT   313
NET203   321
NET204   69
NET_DEV   0/10
NORD.ADMIN   0/101
NORD.CHAT   0/2572
NORD.FIDONET   189
NORD.HARDWARE   0/28
NORD.KULTUR   0/114
NORD.PROG   0/32
NORD.SOFTWARE   0/88
NORD.TEKNIK   0/58
NORD   0/453
OCCULT_CHAT   0/93
OS2BBS   0/787
OS2DOSBBS   0/580
OS2HW   0/42
OS2INET   0/37
OS2LAN   0/134
OS2PROG   0/36
OS2REXX   0/113
OS2USER-L   207
OS2   0/4831
OSDEBATE   0/18996
PASCAL   0/490
PERL   0/457
PHP   0/45
POINTS   0/405
POLITICS   0/29554
POL_INC   0/14731
PSION   103
R20_ADMIN   1133
R20_AMATORRADIO   0/2
R20_BEST_OF_FIDONET   16
R20_CHAT   0/897
R20_DEPP   0/3
R20_DEV   400
R20_ECHO2   1891
R20_ECHOPRES   0/35
R20_ESTAT   0/719
R20_FIDONETPROG...
...RAM.MYPOINT
  0/2
R20_FIDONETPROGRAM   0/22
R20_FIDONET   0/248
R20_FILEFIND   0/24
R20_FILEFOUND   0/22
R20_HIFI   0/3
R20_INFO2   3784
R20_INTERNET   0/12940
R20_INTRESSE   0/60
R20_INTR_KOM   0/99
R20_KANDIDAT.CHAT   42
R20_KANDIDAT   28
R20_KOM_DEV   112
R20_KONTROLL   0/13360
R20_KORSET   0/18
R20_LOKALTRAFIK   0/24
R20_MODERATOR   0/1852
R20_NC   76
R20_NET200   245
R20_NETWORK.OTH...
...ERNETS
  0/13
R20_OPERATIVSYS...
...TEM.LINUX
  0/44
R20_PROGRAMVAROR   0/1
R20_REC2NEC   534
R20_SFOSM   0/341
R20_SF   0/108
R20_SPRAK.ENGLISH   0/1
R20_SQUISH   107
R20_TEST   2
R20_WORST_OF_FIDONET   20
RAR   0/9
RA_MULTI   106
RA_UTIL   0/162
REGCON.EUR   0/2069
REGCON   0/13
SCIENCE   0/1206
SF   0/239
SHAREWARE_SUPPORT   0/5146
SHAREWRE   0/14
SIMPSONS   0/169
STATS_OLD1   0/2539.065
STATS_OLD2   0/2530
STATS_OLD3   0/2395.095
STATS_OLD4   0/1692.25
SURVIVOR   0/495
SYSOPS_CORNER   0/3
SYSOP   0/84
TAGLINES   0/112
TEAMOS2   0/4530
TECH   0/2617
TEST.444   0/105
TRAPDOOR   0/19
TREK   0/755
TUB   0/290
UFO   0/40
UNIX   0/1316
USA_EURLINK   0/102
USR_MODEMS   0/1
VATICAN   0/2740
VIETNAM_VETS   0/14
VIRUS   0/378
VIRUS_INFO   0/201
VISUAL_BASIC   0/473
WHITEHOUSE   0/5187
WIN2000   0/101
WIN32   0/30
WIN95   0/4291
WIN95_OLD1   0/70272
WINDOWS   0/1517
WWB_SYSOP   0/419
WWB_TECH   0/810
ZCC-PUBLIC   0/1
ZEC   4

 
4DOS   0/134
ABORTION   0/7
ALASKA_CHAT   0/506
ALLFIX_FILE   0/1313
ALLFIX_FILE_OLD1   0/7997
ALT_DOS   0/152
AMATEUR_RADIO   0/1039
AMIGASALE   0/14
AMIGA   0/331
AMIGA_INT   0/1
AMIGA_PROG   0/20
AMIGA_SYSOP   0/26
ANIME   0/15
ARGUS   0/924
ASCII_ART   0/340
ASIAN_LINK   0/651
ASTRONOMY   0/417
AUDIO   0/92
AUTOMOBILE_RACING   0/105
BABYLON5   0/17862
BAG   135
BATPOWER   0/361
BBBS.ENGLISH   0/382
BBSLAW   0/109
BBS_ADS   0/5290
BBS_INTERNET   0/507
BIBLE   0/3563
BINKD   0/1119
BINKLEY   0/215
BLUEWAVE   0/2173
CABLE_MODEMS   0/25
CBM   0/46
CDRECORD   0/66
CDROM   0/20
CLASSIC_COMPUTER   0/378
COMICS   0/15
CONSPRCY   0/899
COOKING   42040
COOKING_OLD1   0/24719
COOKING_OLD2   0/40862
COOKING_OLD3   0/37489
COOKING_OLD4   0/35496
COOKING_OLD5   9370
C_ECHO   0/189
C_PLUSPLUS   0/31
DIRTY_DOZEN   0/201
DOORGAMES   0/2333
DOS_INTERNET   0/196
duplikat   6102
ECHOLIST   0/18295
EC_SUPPORT   0/318
ELECTRONICS   0/359
ELEKTRONIK.GER   1534
ENET.LINGUISTIC   0/13
ENET.POLITICS   0/4
ENET.SOFT   0/11701
ENET.SYSOP   34336
ENET.TALKS   0/32
ENGLISH_TUTOR   0/2000
EVOLUTION   0/1335
FDECHO   0/217
FDN_ANNOUNCE   0/7068
FIDONEWS   25122
FIDONEWS_OLD1   0/49742
FIDONEWS_OLD2   0/35949
FIDONEWS_OLD3   0/30874
FIDONEWS_OLD4   0/37224
FIDO_SYSOP   12973
FIDO_UTIL   0/180
FILEFIND   0/209
FILEGATE   0/212
Möte HAM, 16727 texter
 lista första sista föregående nästa
Text 3354, 864 rader
Skriven 2009-12-04 00:30:23 av Amsat List (1:323/120.0)
Ärende: [keps]  orb09337.amsa
=============================
[keps]  orb09337.amsa

Return-Path: <keps-bounces@amsat.org>
X-Rcpt: craig.healy@chowda.com
X-UIDL: 1259903738.15370

SB KEPS @ AMSAT  $ORB09337.O
Orbital Elements  09337.OSCAR

HR AMSAT ORBITAL ELEMENTS FOR OSCAR SATELLITES
FROM WA5QGD FORT WORTH,TX December 3, 2009
Send Subscribe/unsubscribe to KEPS at http://www.amsat.org/mailman/listinfo/kep
BID: ORB09337.O
TO ALL RADIO AMATEURS BT

Satellite: AO-07
Catalog number: 07530
Epoch time:      09336.63976585
Element set:     645
Inclination:      101.4149 deg
RA of node:       355.0553 deg
Eccentricity:    0.0011907
Arg of perigee:   299.9540 deg
Mean anomaly:     060.0345 deg
Mean motion:   12.53577028 rev/day
Decay rate:       -2.7e-07 rev/day^2
Epoch rev:           60382
Checksum:              307

Satellite: FO-29
Catalog number: 24278
Epoch time:      09337.64836733
Element set:     190
Inclination:      098.5226 deg
RA of node:       188.6834 deg
Eccentricity:    0.0349812
Arg of perigee:   271.1084 deg
Mean anomaly:     085.0002 deg
Mean motion:   13.52946874 rev/day
Decay rate:        3.0e-08 rev/day^2
Epoch rev:           65666
Checksum:              334

Satellite: SO-33
Catalog number: 25509
Epoch time:      09336.71532207
Element set:    0600
Inclination:      031.4328 deg
RA of node:       179.5305 deg
Eccentricity:    0.0354488
Arg of perigee:   011.9217 deg
Mean anomaly:     348.9547 deg
Mean motion:   14.28271273 rev/day
Decay rate:        9.9e-07 rev/day^2
Epoch rev:           57994
Checksum:              325

Satellite: RS-22
Catalog number: 27939
Epoch time:      09336.68136717
Element set:    0953
Inclination:      097.9172 deg
RA of node:       205.1657 deg
Eccentricity:    0.0013083
Arg of perigee:   324.8394 deg
Mean anomaly:     035.1945 deg
Mean motion:   14.63362530 rev/day
Decay rate:        8.2e-07 rev/day^2
Epoch rev:           33021
Checksum:              310

Satellite: VO-52
Catalog number: 28650
Epoch time:      09336.75208913
Element set:    0378
Inclination:      097.7229 deg
RA of node:       032.5614 deg
Eccentricity:    0.0026802
Arg of perigee:   196.5776 deg
Mean anomaly:     163.4530 deg
Mean motion:   14.81651747 rev/day
Decay rate:       3.02e-06 rev/day^2
Epoch rev:           24760
Checksum:              318

Satellite: SO-67
Catalog number: 35870
Epoch time:      09337.86991898
Element set:     228
Inclination:      097.3619 deg
RA of node:       026.4550 deg
Eccentricity:    0.0012539
Arg of perigee:   029.8418 deg
Mean anomaly:     323.6896 deg
Mean motion:   15.22874477 rev/day
Decay rate:       3.49e-06 rev/day^2
Epoch rev:            1173
Checksum:              359

/EX
SB KEPS @ AMSAT  $ORB09337.D
Orbital Elements  09337.MICROS

HR AMSAT ORBITAL ELEMENTS FOR THE MICROSATS
FROM WA5QGD FORT WORTH,TX December 3, 2009
Send Subscribe/unsubscribe to KEPS at http://www.amsat.org/mailman/listinfo/kep
BID: ORB09337.D
TO ALL RADIO AMATEURS BT

Satellite: UO-11
Catalog number: 14781
Epoch time:      09336.65769939
Element set:    0121
Inclination:      098.0854 deg
RA of node:       022.4992 deg
Eccentricity:    0.0009455
Arg of perigee:   147.7700 deg
Mean anomaly:     212.4061 deg
Mean motion:   14.79751778 rev/day
Decay rate:       1.62e-06 rev/day^2
Epoch rev:           38274
Checksum:              328

Satellite: AO-16
Catalog number: 20439
Epoch time:      09337.80482660
Element set:     765
Inclination:      098.3044 deg
RA of node:       298.7047 deg
Eccentricity:    0.0011515
Arg of perigee:   031.0117 deg
Mean anomaly:     329.1735 deg
Mean motion:   14.31841111 rev/day
Decay rate:       -6.0e-08 rev/day^2
Epoch rev:            3742
Checksum:              280

Satellite: LO-19
Catalog number: 20442
Epoch time:      09335.66819094
Element set:     673
Inclination:      098.2656 deg
RA of node:       303.2643 deg
Eccentricity:    0.0012305
Arg of perigee:   033.4726 deg
Mean anomaly:     326.7275 deg
Mean motion:   14.32074421 rev/day
Decay rate:       -4.2e-07 rev/day^2
Epoch rev:            3728
Checksum:              292

Satellite: AO-27
Catalog number: 22825
Epoch time:      09336.85944799
Element set:    0400
Inclination:      098.4600 deg
RA of node:       285.1572 deg
Eccentricity:    0.0009096
Arg of perigee:   123.6058 deg
Mean anomaly:     236.5985 deg
Mean motion:   14.29279881 rev/day
Decay rate:       -3.2e-07 rev/day^2
Epoch rev:           84400
Checksum:              336

Satellite: IO-26
Catalog number: 22826
Epoch time:      09337.79977531
Element set:     135
Inclination:      098.4537 deg
RA of node:       286.7494 deg
Eccentricity:    0.0009660
Arg of perigee:   117.1440 deg
Mean anomaly:     243.0723 deg
Mean motion:   14.29533570 rev/day
Decay rate:       -6.0e-08 rev/day^2
Epoch rev:           84424
Checksum:              323

Satellite: GO-32
Catalog number: 25397
Epoch time:      09337.51048691
Element set:      55
Inclination:      098.3176 deg
RA of node:       350.7089 deg
Eccentricity:    0.0002085
Arg of perigee:   104.6843 deg
Mean anomaly:     255.4574 deg
Mean motion:   14.23168245 rev/day
Decay rate:       1.24e-06 rev/day^2
Epoch rev:           59221
Checksum:              308

Satellite: NO-44
Catalog number: 26931
Epoch time:      09337.52280023
Element set:     328
Inclination:      067.0528 deg
RA of node:       348.0834 deg
Eccentricity:    0.0007065
Arg of perigee:   269.4329 deg
Mean anomaly:     090.5963 deg
Mean motion:   14.29575732 rev/day
Decay rate:        2.1e-07 rev/day^2
Epoch rev:           42678
Checksum:              315

